CW5398 Weather Reports


Display with metric or nautical units.
time (UTC)temp
F
wind
direction
speed
MPH
gust
MPH
rain 1hr
in
rain 24hr
in
rain mn
in
humidity
%
barometer
mb
20260504174037 69 248 1.0 5.0 0.00 0.00 0.00 65 1010.2
20260504173017 70 248 2.0 7.0 0.00 0.00 0.00 63 1010.3
20260504172017 70 270 1.0 6.0 0.00 0.00 0.00 64 1010.3
20260504171017 70 270 0.0 2.0 0.00 0.00 0.00 62 1010.4
20260504151017 60 248 0.0 4.0 0.00 0.00 0.00 79 1009.8
20260504141016 53 248 0.0 1.0 0.00 0.00 0.00 90 1009.6
20260504081016 55 248 0.0 1.0 0.00 0.00 0.00 83 1008.8
20260504050017 59 250 0.0 0.0 0.00 0.00 0.00 80 1009.3
20260504045017 60 250 0.0 0.0 0.00 0.00 0.00 78 1009.2
20260504044017 60 250 0.0 0.0 0.00 0.00 0.00 75 1009.1
20260504043017 60 250 0.0 0.0 0.00 0.00 0.00 75 1009.1
20260504042017 61 250 0.0 0.0 0.00 0.00 0.00 76 1009.1
20260504041037 62 250 0.0 0.0 0.00 0.00 0.00 75 1009.1
20260504040017 63 250 0.0 0.0 0.00 0.00 0.00 75 1009.1
20260504035017 64 250 0.0 0.0 0.00 0.00 0.00 77 1009.0
20260504034017 65 250 0.0 0.0 0.00 0.00 0.00 75 1008.9
20260504033017 66 250 0.0 0.0 0.00 0.00 0.00 73 1008.9
20260504032017 67 250 0.0 0.0 0.00 0.00 0.00 71 1008.9
20260504031036 68 250 0.0 0.0 0.00 0.00 0.00 69 1009.0
20260504030017 69 250 0.0 0.0 0.00 0.00 0.00 66 1009.0
20260504025017 71 250 0.0 0.0 0.00 0.00 0.00 63 1009.1
20260504024017 72 250 0.0 0.0 0.00 0.00 0.00 58 1009.2
20260504023017 73 250 0.0 0.0 0.00 0.00 0.00 56 1009.1
20260504022017 74 250 0.0 0.0 0.00 0.00 0.00 55 1009.1
20260504021016 74 250 0.0 0.0 0.00 0.00 0.00 54 1009.3
20260504020016 75 248 0.0 1.0 0.00 0.00 0.00 50 1009.3
20260504015016 75 248 0.0 1.0 0.00 0.00 0.00 49 1009.6
20260504014017 75 248 0.0 1.0 0.00 0.00 0.00 49 1009.6
20260504013017 75 248 0.0 5.0 0.00 0.00 0.00 48 1009.6
20260504012016 75 248 3.0 5.0 0.00 0.00 0.00 48 1009.9
20260504011017 76 248 1.0 6.0 0.00 0.00 0.00 48 1010.1
20260504010017 77 248 1.0 5.0 0.00 0.00 0.00 48 1010.1
20260504005016 77 248 0.0 5.0 0.00 0.00 0.00 46 1010.2
20260504004016 77 248 1.0 6.0 0.00 0.00 0.00 48 1010.2
20260504003016 77 248 0.0 5.0 0.00 0.00 0.00 46 1010.2
20260504002017 78 248 1.0 5.0 0.00 0.00 0.00 47 1010.2
20260504001016 77 248 0.0 6.0 0.00 0.00 0.00 46 1010.4
20260504000016 78 248 1.0 8.0 0.00 0.00 0.00 44 1010.4
20260503235036 78 225 1.0 5.0 0.00 0.00 0.00 44 1010.7
20260503234016 78 225 0.0 4.0 0.00 0.00 0.00 45 1010.7
20260503233016 78 225 1.0 4.0 0.00 0.00 0.00 45 1010.7
20260503232016 78 225 2.0 5.0 0.00 0.00 0.00 46 1010.8
20260503231016 77 225 1.0 4.0 0.00 0.00 0.00 48 1011.2
20260503230016 77 248 1.0 4.0 0.00 0.00 0.00 48 1011.2
20260503225016 77 203 2.0 7.0 0.00 0.00 0.00 46 1011.3
20260503224016 77 203 1.0 5.0 0.00 0.00 0.00 44 1011.6
20260503223036 77 203 1.0 5.0 0.00 0.00 0.00 42 1011.6
20260503222021 77 203 1.0 6.0 0.00 0.00 0.00 47 1011.8
20260503221020 77 225 2.0 10.0 0.00 0.00 0.00 47 1012.0
20260503220016 78 248 3.0 7.0 0.00 0.00 0.00 44 1012.0
20260503215016 78 248 3.0 8.0 0.00 0.00 0.00 46 1012.3
20260503214036 79 225 2.0 8.0 0.00 0.00 0.00 47 1012.3
20260503213016 80 248 2.0 8.0 0.00 0.00 0.00 44 1012.3
20260503212016 79 225 1.0 4.0 0.00 0.00 0.00 44 1012.4
20260503211016 79 225 1.0 6.0 0.00 0.00 0.00 46 1012.4
20260503210016 79 225 1.0 5.0 0.00 0.00 0.00 49 1012.4
20260503205016 78 203 1.0 6.0 0.00 0.00 0.00 49 1012.5
20260503204016 77 203 2.0 6.0 0.00 0.00 0.00 50 1012.6
20260503203036 75 203 3.0 7.0 0.00 0.00 0.00 50 1012.6
20260503202036 75 203 1.0 7.0 0.00 0.00 0.00 50 1012.7
20260503201016 75 203 2.0 7.0 0.00 0.00 0.00 53 1012.9
20260503200016 75 225 2.0 11.0 0.00 0.00 0.00 52 1012.9
20260503195015 75 225 1.0 6.0 0.00 0.00 0.00 50 1013.1
20260503194016 74 225 1.0 6.0 0.00 0.00 0.00 54 1013.3
20260503193016 73 203 1.0 5.0 0.00 0.00 0.00 56 1013.3
20260503192016 73 203 2.0 7.0 0.00 0.00 0.00 60 1013.3
20260503191035 73 203 1.0 5.0 0.00 0.00 0.00 57 1013.5
20260503190031 73 225 2.0 8.0 0.00 0.00 0.00 56 1013.5
20260503185016 72 225 1.0 6.0 0.00 0.00 0.00 58 1013.8
20260503184015 72 225 1.0 5.0 0.00 0.00 0.00 60 1013.9
20260503183035 72 225 1.0 6.0 0.00 0.00 0.00 58 1013.9
20260503182016 72 225 3.0 6.0 0.00 0.00 0.00 59 1014.0
20260503181015 72 225 1.0 6.0 0.00 0.00 0.00 59 1014.2
20260503180016 71 225 1.0 5.0 0.00 0.00 0.00 60 1014.2
20260503175015 70 225 1.0 5.0 0.00 0.00 0.00 60 1014.4